Volver al catálogo

COSMOS 2168

ActivoNavegaciónPO
NORAD 21782·PAYLOAD·🇷🇺 Russia

Lanzado Nov 12, 1991 desde Plesetsk Cosmodrome

Loading…

Próximos Pases (próximas 24 horas)

TLE

ActualizadoSource: Space-Track

Época: Sep 14, 2026, 11:58 UTC

1 21782U 91077D   26257.49928168  .00000035  00000-0  13070-3 0  9995
2 21782  82.6001 155.7182 0013236 176.5172 358.0742 12.65533349609096

Sigue COSMOS 2168 en tiempo real con AllMySat

Download on the App Store